Wind_Speed
18 17 19 26 24 25 26 27 27 26 29 33 33 36 35 35 39 41 42 44 45 46 48 49 50 51 54 56 56 56 55 54 52 50 47 48 47 45 45 49 50 50 50 54
19 21 27 25 26 28 28 29 29 30 30 36 35 37 39 39 36 37 38 41 43 46 49 51 53 55 57 56 57 60 63 64 62 57 56 53 48 51 53 53 55 52 54 55
19 21 22 22 23 24 25 25 28 30 30 35 34 36 35 34 33 34 37 40 42 44 46 48 51 54 56 56 58 59 58 60 60 58 54 56 54 56 59 58 57 57 62 63
23 24 24 25 26 27 25 30 32 30 32 33 33 35 28 28 29 29 33 36 36 37 39 42 46 50 52 53 56 58 58 60 57 55 56 54 56 58 61 62 65 66 70 67
27 28 26 27 29 31 27 34 33 34 36 37 35 39 30 33 32 31 34 38 40 40 41 42 43 44 45 47 51 54 57 58 56 55 55 55 52 55 58 61 68 71 71 68
28 30 29 29 31 30 30 33 36 38 40 44 34 38 46 37 34 31 35 39 40 42 45 46 46 47 48 50 51 53 56 57 57 57 57 55 53 50 53 56 59 60 62 66
31 33 32 32 33 33 33 34 39 43 44 45 41 46 47 44 38 36 35 38 42 45 47 48 49 50 51 51 52 53 55 56 58 60 59 57 56 55 54 55 55 54 54 60
33 32 31 34 36 34 37 36 41 45 46 47 48 51 47 45 44 42 41 43 45 46 47 48 49 51 53 54 55 56 56 58 59 61 61 58 56 55 56 55 55 54 55 58
37 37 36 38 37 39 38 37 37 46 49 53 52 51 49 48 47 47 49 49 49 50 51 51 53 54 55 56 54 56 59 61 62 65 66 63 58 60 60 60 59 58 54 55
39 43 36 35 37 38 40 39 40 41 48 50 50 48 49 49 47 50 53 54 52 53 55 57 58 56 54 54 57 58 59 58 60 61 62 66 67 67 64 62 62 58 55 51
44 47 46 42 39 40 41 42 41 41 46 50 50 50 51 49 50 52 55 57 59 60 58 59 55 51 49 47 52 55 57 57 58 55 51 61 66 66 67 63 63 56 50 50
43 47 46 40 38 38 39 41 41 43 46 46 49 50 46 46 52 55 55 57 58 57 53 49 42 40 42 39 45 46 46 44 51 54 51 56 64 63 63 54 62 57 52 51
38 41 40 36 34 35 36 37 38 39 41 44 46 47 46 49 52 51 53 52 50 48 45 41 38 42 38 38 37 34 33 36 41 52 56 56 59 63 62 65 64 49 46 50
35 36 34 35 35 35 35 33 34 35 39 39 46 43 40 44 45 44 43 39 32 32 41 40 44 41 39 39 37 32 35 35 48 49 51 52 54 57 61 62 59 48 46 51
32 31 31 32 31 33 35 34 34 36 36 43 33 40 36 39 38 33 28 26 28 27 31 35 36 39 40 41 33 33 33 33 38 42 47 51 54 57 60 64 65 54 52 51
27 29 29 29 30 32 32 32 33 34 32 33 32 28 31 28 27 24 25 23 23 24 28 33 30 32 38 38 39 38 38 36 35 37 41 34 40 47 50 56 56 59 52 46
28 26 28 24 28 30 29 26 27 27 26 26 24 23 23 23 22 24 23 26 23 27 29 30 29 26 32 35 34 38 39 37 36 34 36 34 37 36 38 49 62 57 45 50
22 24 23 20 24 24 23 23 24 23 20 19 20 22 22 24 25 25 29 29 29 30 31 31 31 32 35 38 36 35 39 41 44 42 39 39 41 44 45 43 41 44 52 51
19 20 19 20 21 21 19 21 20 19 18 18 20 24 28 31 28 24 33 36 37 37 37 37 38 38 37 38 41 43 44 46 47 46 47 49 50 48 45 46 45 46 49 51
16 16 18 20 21 19 18 18 16 16 17 20 24 26 27 30 34 32 36 40 44 48 49 48 47 45 46 45 46 46 46 47 48 51 53 53 53 54 55 54 54 52 52 51
18 18 19 20 21 15 16 15 14 17 19 22 24 28 33 35 39 44 46 48 53 55 51 51 52 52 51 52 52 53 53 51 50 50 50 52 53 54 55 57 60 60 61 61
21 23 21 20 16 14 15 15 18 18 20 24 28 34 36 40 44 50 56 54 48 46 41 41 44 43 43 42 41 43 48 51 52 52 54 55 56 56 57 58 60 62 62 65
23 20 18 17 14 16 14 17 16 17 20 27 31 34 40 45 50 52 48 41 41 40 38 41 41 41 44 45 41 35 37 40 43 46 49 50 52 54 59 63 64 66 67 65
21 21 17 15 14 13 15 13 14 20 24 29 34 40 46 52 49 49 45 35 43 38 32 23 28 30 34 37 35 30 31 36 35 36 41 44 45 45 48 53 58 61 63 64
21 17 13 13 12 14 15 15 18 23 28 32 36 45 51 56 47 48 44 39 34 25 21 24 23 25 27 27 28 30 30 26 23 26 31 35 40 45 48 52 54 56 58 63
13 9 10 11 12 13 15 20 23 26 30 35 42 47 53 54 46 43 41 35 27 21 17 18 17 16 20 20 20 20 19 18 18 21 26 30 35 38 43 49 52 54 59 60
Wind_Direction
241 241 244 242 248 252 254 255 255 256 256 257 258 258 257 251 253 251 251 251 251 253 256 258 261 263 265 266 267 268 269 269 268 262 256 254 257 260 250 255 258 259 265 262
244 242 244 250 251 252 254 255 256 255 255 255 254 255 255 254 252 255 256 256 254 250 249 250 252 255 258 259 262 264 265 266 268 265 266 258 251 253 249 255 258 262 266 266
240 240 246 246 247 247 247 249 249 249 249 252 256 255 256 261 263 262 260 255 254 255 256 255 256 258 257 257 257 257 258 262 262 263 258 260 253 246 248 252 259 261 261 264
253 250 250 249 250 250 250 253 251 254 256 258 260 261 257 259 261 262 261 261 260 259 258 257 256 257 258 257 259 262 261 259 259 259 260 255 256 257 251 255 256 257 259 264
258 260 258 258 256 258 257 259 261 261 261 261 259 269 261 259 258 261 265 263 263 264 265 265 264 261 260 259 259 260 261 261 261 262 262 263 259 259 262 258 256 261 262 262
261 259 261 260 261 262 263 267 270 271 270 267 274 271 269 260 263 260 260 265 268 267 265 265 264 265 264 263 260 258 259 261 262 263 263 264 265 263 261 255 256 256 259 260
256 262 265 266 266 272 272 270 272 271 274 278 274 268 269 279 273 265 259 259 262 265 268 268 267 266 265 262 260 260 258 257 257 257 257 258 262 261 258 254 255 258 261 259
256 252 258 261 267 265 268 274 274 280 279 276 276 274 282 280 281 282 273 264 261 263 266 267 270 271 271 269 267 265 261 259 257 255 255 255 255 256 258 256 256 257 262 261
259 254 251 256 258 262 267 266 270 272 276 279 281 282 281 281 284 285 282 280 276 275 276 276 275 276 274 270 267 266 266 263 254 249 251 252 251 250 251 252 252 255 257 263
268 267 259 259 265 267 272 270 269 273 276 278 279 282 284 285 291 289 287 287 287 286 285 284 283 281 278 271 265 261 253 254 253 250 249 248 246 244 246 247 250 251 256 260
267 269 273 271 272 271 270 272 273 273 273 280 283 284 288 292 291 289 290 291 291 289 287 286 283 279 273 267 262 261 255 249 252 254 250 242 241 245 247 244 249 250 249 258
268 271 271 274 273 268 267 270 273 274 278 278 281 281 285 287 284 284 284 286 286 287 283 281 277 276 278 275 260 257 253 254 251 244 244 240 240 244 247 248 247 248 252 252
265 267 272 275 271 272 270 271 271 273 274 274 278 285 288 287 285 288 289 290 288 284 278 273 281 275 271 271 264 258 252 251 249 247 241 238 238 239 240 246 253 236 247 256
264 267 272 274 277 279 275 273 273 272 270 278 278 285 285 285 290 293 290 290 288 286 275 268 277 271 260 263 257 256 247 253 255 245 244 238 241 242 242 251 257 242 248 254
269 270 269 274 276 275 276 277 276 273 273 274 284 284 288 292 293 292 283 296 294 291 288 282 280 258 257 263 256 256 252 255 260 241 238 241 240 245 243 246 249 250 248 256
267 274 277 274 275 275 275 274 274 278 283 284 284 291 294 294 300 297 289 296 294 288 291 290 285 259 252 256 261 253 252 251 252 252 251 241 224 226 230 240 249 252 245 241
272 270 271 277 273 274 276 278 281 277 279 286 288 289 298 292 293 285 284 285 289 285 287 288 282 271 261 259 260 257 252 250 255 256 251 250 254 251 248 242 243 237 236 240
271 272 274 273 274 277 282 281 275 276 281 285 285 285 288 288 290 301 289 284 288 286 287 285 282 276 267 263 263 259 252 256 258 259 256 254 252 253 255 253 252 255 246 244
274 276 276 275 276 284 285 277 275 277 278 283 289 293 293 295 290 294 292 292 291 288 282 278 277 274 270 270 267 260 257 258 257 255 254 254 253 253 254 249 248 251 250 249
274 271 276 279 284 289 276 272 278 281 272 278 288 292 295 296 297 295 292 290 288 287 284 281 276 269 266 263 264 263 262 260 260 260 259 258 259 260 257 253 250 253 255 252
272 278 281 281 284 285 269 272 277 282 290 292 294 299 299 300 301 302 297 291 286 284 283 280 275 272 268 263 260 260 261 261 261 260 261 263 264 261 260 256 255 254 256 256
276 280 283 282 279 270 269 274 285 295 295 296 302 303 305 306 306 307 302 300 294 288 277 269 272 272 272 273 271 266 264 262 261 260 260 262 262 261 259 257 253 252 251 251
269 277 276 273 268 265 265 276 289 287 295 300 302 304 310 309 315 314 310 301 299 296 283 261 267 266 276 275 274 276 269 267 265 263 262 262 261 258 255 255 253 252 249 249
277 278 272 262 264 269 272 282 287 294 298 304 308 314 313 318 322 311 311 300 303 292 282 263 273 275 265 261 274 276 270 276 274 267 265 263 260 258 257 255 253 252 248 247
278 273 260 255 263 268 274 282 289 298 305 312 313 316 316 319 323 313 315 315 318 298 282 279 263 268 261 265 277 281 278 277 276 271 266 263 261 259 258 257 255 254 251 250
282 253 246 258 263 267 278 290 298 303 307 309 311 314 313 324 323 317 318 322 317 302 281 276 274 258 264 276 275 277 284 281 281 280 278 274 269 263 265 264 259 260 253 253
Height
5746 5749 5749 5748 5752 5754 5755 5757 5760 5762 5762 5764 5765 5765 5769 5771 5772 5773 5775 5777 5780 5781 5782 5784 5784 5785 5786 5786 5789 5791 5794 5797 5799 5803 5807 5808 5808 5809 5810 5813 5813 5811 5810 5810
5742 5742 5741 5744 5746 5747 5749 5750 5752 5753 5754 5753 5755 5756 5757 5759 5763 5764 5765 5766 5768 5770 5770 5770 5771 5773 5775 5777 5779 5780 5782 5784 5788 5790 5792 5795 5798 5799 5798 5798 5798 5799 5800 5800
5735 5737 5737 5739 5740 5741 5742 5743 5742 5743 5743 5742 5745 5746 5748 5751 5753 5755 5755 5756 5756 5757 5759 5760 5760 5761 5762 5763 5764 5766 5768 5769 5771 5774 5778 5780 5783 5785 5784 5787 5785 5785 5786 5789
5729 5730 5732 5733 5734 5734 5737 5734 5735 5737 5737 5738 5738 5737 5743 5744 5744 5745 5744 5743 5745 5747 5747 5748 5748 5749 5750 5751 5752 5751 5753 5755 5755 5757 5759 5765 5769 5770 5774 5772 5772 5772 5773 5776
5723 5723 5725 5727 5727 5728 5732 5727 5729 5729 5728 5728 5731 5728 5737 5734 5736 5736 5735 5734 5733 5734 5736 5737 5737 5739 5739 5739 5739 5740 5740 5741 5743 5745 5746 5748 5753 5757 5759 5757 5757 5758 5760 5763
5717 5715 5717 5718 5718 5721 5722 5721 5719 5719 5719 5716 5726 5722 5715 5723 5727 5729 5726 5723 5723 5723 5722 5722 5723 5723 5724 5726 5727 5726 5726 5727 5728 5730 5733 5735 5737 5741 5743 5743 5744 5745 5747 5749
5708 5708 5710 5710 5710 5710 5711 5711 5708 5707 5708 5707 5710 5706 5707 5709 5713 5715 5717 5714 5711 5708 5708 5708 5708 5708 5708 5709 5711 5712 5712 5713 5714 5716 5718 5722 5724 5726 5728 5730 5730 5731 5733 5736
5699 5703 5703 5702 5701 5704 5700 5702 5699 5695 5696 5696 5695 5692 5697 5696 5695 5695 5697 5699 5697 5696 5695 5694 5694 5694 5693 5692 5693 5693 5695 5697 5697 5699 5701 5705 5708 5710 5712 5714 5716 5717 5720 5722
5690 5692 5696 5695 5694 5692 5694 5693 5694 5685 5684 5680 5683 5683 5684 5683 5682 5680 5679 5678 5678 5678 5677 5677 5677 5676 5675 5674 5674 5675 5675 5677 5679 5681 5684 5687 5691 5695 5697 5698 5700 5702 5705 5709
5679 5676 5683 5685 5683 5684 5681 5682 5681 5679 5673 5670 5671 5671 5669 5668 5669 5666 5662 5660 5660 5658 5657 5656 5655 5656 5656 5655 5654 5654 5656 5659 5662 5665 5667 5670 5674 5678 5681 5683 5685 5688 5693 5695
5668 5667 5670 5672 5674 5672 5671 5668 5669 5669 5664 5658 5657 5660 5657 5658 5655 5650 5646 5643 5641 5640 5639 5637 5636 5635 5635 5635 5636 5638 5642 5644 5645 5648 5650 5653 5657 5660 5663 5669 5672 5676 5681 5685
5656 5653 5653 5658 5659 5660 5660 5657 5657 5654 5652 5650 5646 5646 5650 5648 5642 5638 5637 5635 5630 5626 5624 5622 5621 5621 5620 5621 5622 5623 5624 5628 5628 5631 5634 5636 5641 5645 5651 5654 5659 5663 5668 5673
5646 5643 5642 5645 5649 5648 5646 5647 5646 5645 5642 5637 5637 5638 5636 5631 5627 5626 5620 5618 5615 5612 5610 5609 5609 5609 5609 5609 5610 5611 5612 5615 5614 5618 5620 5622 5627 5629 5637 5642 5645 5646 5653 5658
5634 5635 5636 5635 5634 5634 5634 5636 5635 5633 5630 5631 5625 5628 5627 5620 5614 5612 5608 5604 5601 5599 5599 5599 5599 5597 5597 5597 5598 5600 5601 5602 5599 5602 5606 5611 5615 5618 5624 5628 5630 5635 5640 5644
5624 5626 5626 5625 5625 5623 5622 5623 5622 5620 5623 5617 5622 5615 5612 5609 5605 5601 5598 5596 5594 5592 5590 5588 5586 5584 5585 5585 5586 5589 5591 5592 5591 5593 5595 5598 5600 5605 5610 5614 5620 5622 5626 5631
5617 5615 5615 5616 5614 5613 5614 5614 5613 5611 5610 5609 5606 5606 5601 5599 5597 5593 5591 5589 5586 5583 5581 5578 5575 5574 5575 5577 5578 5579 5580 5580 5583 5584 5584 5582 5587 5591 5595 5602 5606 5610 5612 5618
5608 5607 5606 5608 5604 5604 5607 5605 5603 5602 5601 5600 5598 5597 5595 5592 5589 5586 5584 5581 5579 5576 5573 5570 5567 5566 5565 5566 5567 5568 5569 5569 5570 5572 5574 5575 5579 5580 5584 5587 5592 5596 5597 5602
5600 5598 5598 5598 5598 5598 5597 5596 5595 5594 5594 5592 5591 5589 5587 5585 5583 5579 5575 5573 5572 5568 5565 5562 5559 5557 5556 5555 5554 5555 5557 5558 5560 5561 5562 5564 5568 5571 5574 5576 5579 5583 5586 5588
5592 5591 5591 5591 5591 5591 5590 5588 5588 5588 5588 5586 5584 5582 5579 5576 5575 5575 5568 5564 5561 5557 5554 5552 5549 5546 5545 5543 5542 5543 5545 5545 5547 5549 5550 5552 5554 5557 5560 5563 5565 5568 5571 5575
5586 5586 5587 5585 5585 5585 5583 5582 5582 5581 5582 5580 5578 5575 5572 5569 5566 5567 5560 5554 5548 5542 5538 5536 5534 5532 5531 5531 5529 5529 5529 5529 5531 5532 5534 5536 5538 5540 5543 5546 5550 5552 5554 5558
5581 5580 5581 5579 5578 5578 5576 5576 5576 5576 5578 5573 5570 5567 5564 5559 5554 5549 5544 5540 5533 5527 5522 5518 5515 5512 5512 5512 5513 5514 5514 5516 5516 5516 5517 5519 5520 5523 5525 5526 5530 5532 5535 5538
5577 5575 5574 5573 5572 5572 5571 5571 5571 5570 5568 5565 5563 5557 5552 5549 5543 5535 5526 5517 5509 5504 5502 5501 5498 5497 5495 5495 5496 5496 5497 5499 5500 5502 5504 5505 5505 5506 5507 5507 5510 5512 5514 5518
5570 5569 5568 5568 5567 5566 5566 5566 5565 5564 5562 5558 5554 5550 5544 5537 5529 5518 5508 5500 5493 5487 5483 5483 5484 5485 5483 5481 5481 5482 5483 5484 5485 5486 5487 5487 5486 5486 5487 5487 5489 5490 5493 5497
5562 5562 5562 5561 5562 5561 5560 5561 5560 5558 5556 5552 5545 5539 5532 5523 5516 5505 5494 5486 5479 5473 5467 5469 5471 5471 5471 5470 5471 5473 5473 5473 5472 5472 5470 5469 5467 5468 5467 5467 5468 5469 5473 5477
5556 5556 5556 5557 5557 5556 5556 5556 5555 5552 5547 5543 5538 5529 5521 5512 5502 5491 5483 5475 5469 5463 5461 5459 5460 5462 5462 5464 5464 5462 5461 5461 5461 5458 5456 5454 5451 5450 5449 5448 5449 5449 5453 5456
5551 5552 5553 5553 5553 5552 5553 5551 5548 5545 5540 5536 5529 5523 5513 5500 5490 5481 5474 5467 5461 5456 5453 5453 5453 5456 5457 5457 5455 5455 5455 5454 5452 5449 5446 5442 5439 5436 5433 5430 5430 5429 5430 5431